Orbital Elements at Epoch 2459000.5 (2020-May-31.0) TDB
Reference: JPL 7 (heliocentric ecliptic J2000)
Element | Value | Uncertainty (1-sigma) | Units |
e | .1873027525638298 | 9.0135e-08 | |
a | 2.328696301138701 | 1.7325e-08 | au |
q | 1.892525074050213 | 2.0737e-07 | au |
i | 1.475271117233109 | 7.9541e-06 | deg |
node | 112.2831455827325 | 0.00029645 | deg |
peri | 316.35952428928 | 0.00031119 | deg |
M | 177.1122363289437 | 7.8161e-05 | deg |
tp | 2458361.922263863549 (2018-Aug-31.42226386) | 0.0002823 | TDB |
period | 1297.979122019329 3.55 | 1.4485e-05 3.966e-08 | d yr |
n | .2773542300433389 | 3.0952e-09 | deg/d |
Q | 2.764867528227189 | 2.057e-08 | au |
|
| | Orbit Determination Parameters
Additional Information
|